This is the latest recevied weather packets stored in our database for station/object DW9280. If no packets are shown the sender has not sent any weather packets the latest 10 day(s).
| Time | Temp. | Humidity | Pressure | Rain* | Wind** | Luminosity | Snow |
|---|---|---|---|---|---|---|---|
| 1787661096 | 24.44° C | 51% | 1014.6 hPa | 0 mm | - | 403 W/m² | - |
| 1787660796 | 25° C | 52% | 1014.6 hPa | 0 mm | - | 557 W/m² | - |
| 1787660496 | 24.44° C | 53% | 1014.6 hPa | 0 mm | - | 735 W/m² | - |
| 1787660197 | 25° C | 51% | 1014.6 hPa | 0 mm | - | 735 W/m² | - |
| 1787659896 | 24.44° C | 52% | 1014.7 hPa | 0 mm | - | 724 W/m² | - |
| 1787659597 | 24.44° C | 52% | 1014.7 hPa | 0 mm | - | 738 W/m² | - |
| 1787659296 | 24.44° C | 53% | 1014.8 hPa | 0 mm | - | 747 W/m² | - |
| 1787658997 | 24.44° C | 55% | 1014.7 hPa | 0 mm | - | 689 W/m² | - |
| 1787658695 | 23.89° C | 54% | 1014.7 hPa | 0 mm | - | 721 W/m² | - |
| 1787658397 | 23.89° C | 55% | 1014.8 hPa | 0 mm | - | 729 W/m² | - |
| 1787658095 | 23.89° C | 55% | 1014.8 hPa | 0 mm | - | 645 W/m² | - |
| 1787657922 | 23.89° C | 54% | 1014.9 hPa | 0 mm | - | 671 W/m² | - |
| 1787657495 | 23.89° C | 57% | 1014.9 hPa | 0 mm | - | 592 W/m² | - |
| 1787657197 | 23.89° C | 55% | 1015 hPa | 0 mm | - | 640 W/m² | - |
| 1787656896 | 23.89° C | 56% | 1014.9 hPa | 0 mm | - | 728 W/m² | - |
| 1787656596 | 23.33° C | 56% | 1015 hPa | 0 mm | - | 703 W/m² | - |
| 1787656296 | 23.33° C | 57% | 1015 hPa | 0 mm | - | 684 W/m² | - |
| 1787656120 | 23.33° C | 56% | 1015 hPa | 0 mm | - | 671 W/m² | - |
| 1787655696 | 23.33° C | 57% | 1015.1 hPa | 0 mm | - | 668 W/m² | - |
| 1787655399 | 22.78° C | 57% | 1015.1 hPa | 0 mm | - | 647 W/m² | - |
| 1787655098 | 23.33° C | 58% | 1015.2 hPa | 0 mm | - | 633 W/m² | - |
| 1787654796 | 22.78° C | 59% | 1015.1 hPa | 0 mm | - | 659 W/m² | - |
| 1787654499 | 22.78° C | 60% | 1015.1 hPa | 0 mm | - | 659 W/m² | - |
| 1787654317 | 22.22° C | 60% | 1015 hPa | 0 mm | - | 629 W/m² | - |
| 1787653894 | 22.22° C | 61% | 1015 hPa | 0 mm | - | 610 W/m² | - |
* Rain latest hour (hover to see other rain measurements)
** Current wind speed in m/s (hover to see current wind gust speed)